Flag Weather past 2 weeks in São Luis, Maranhão, Brazil

Now
84 °F

Scattered clouds.


Feels Like: 87 °F
Forecast: 79 / 89 °F
Wind: 16 mph from East

Location: Sao Luiz Aeroporto

Current Time: Nov 23, 2014 at 8:20:39 AM

Latest Report: Nov 23, 2014 at 8:00 AM


Visibility: N/A

Pressure: 29.86 "Hg

Humidity: 58%

Dew point: 68 °F

Location of São LuisLocation

Historic Weather in São Luis — Graph

°F

São Luis temperature yesterday

Maximum temperature yesterday: 90 °F (at 12:00 PM)
Minimum temperature yesterday: 79 °F (at 3:00 AM)
Average temperature yesterday: 83 °F

Past Weeks' High & Low Weather Summary

 TemperatureHumidityPressure
High90 °F (Nov 10, 2:00 PM)83% (Nov 10, 4:00 AM)30.33 "Hg (Nov 10, 4:00 AM)
Low75 °F (Nov 10, 4:00 AM)46% (Nov 10, 2:00 PM)26.21 "Hg (Nov 14, 1:00 AM)
Average82 °F66%29.83 "Hg
* Reported Nov 8 7:00 AM — Nov 23 7:00 AM, São Luis, Weather by CustomWeather, © 2014

Note: Actual official high and low records may vary slightly from our data, if they occured in-between our weather recording intervals... More about our weather records

Advertising

São Luis weather history for previous 24 hours

 ConditionsComfort  
Time TempWeatherWind HumidityBarometerVisibility
7:00 AM
Nov 23
81 °FScattered clouds.10 mph66%29.86 "HgN/A
6:00 AM79 °FPassing clouds.10 mph70%29.83 "HgN/A
5:00 AM79 °FPassing clouds.7 mph70%29.80 "HgN/A
4:00 AM81 °FPassing clouds.10 mph70%29.80 "HgN/A
3:00 AM81 °FPassing clouds.12 mph70%29.83 "HgN/A
2:00 AM81 °FPassing clouds.9 mph70%29.83 "HgN/A
1:00 AM81 °FPassing clouds.12 mph70%29.86 "HgN/A
12:00 AM81 °FPassing clouds.8 mph70%29.86 "HgN/A
11:00 PM
Nov 22
81 °FPassing clouds.12 mph70%29.86 "HgN/A
10:00 PM81 °FPassing clouds.10 mph70%29.86 "HgN/A
9:00 PM81 °FPassing clouds.9 mph74%29.86 "HgN/A
8:00 PM82 °FPassing clouds.15 mph70%29.83 "HgN/A
7:00 PM82 °FPassing clouds.15 mph70%29.80 "HgN/A
6:00 PM82 °FScattered clouds.18 mph70%29.80 "HgN/A
5:00 PM84 °FPassing clouds.17 mph62%29.77 "HgN/A
4:00 PM86 °FPassing clouds.17 mph59%29.77 "HgN/A
3:00 PM88 °FScattered clouds.18 mph52%29.77 "HgN/A
2:00 PM90 °FScattered clouds.15 mph49%29.80 "HgN/A
1:00 PM90 °FScattered clouds.16 mph49%29.83 "HgN/A
12:00 PM90 °FScattered clouds.16 mph52%29.83 "HgN/A
11:00 AM88 °FPartly sunny.12 mph52%29.86 "HgN/A
10:00 AM86 °FPartly sunny.14 mph59%29.89 "HgN/A
9:00 AM84 °FScattered clouds.17 mph62%29.89 "HgN/A
8:00 AM82 °FScattered clouds.17 mph66%29.86 "HgN/A
Weather by CustomWeather, © 2014

See weather overviewHow to use our weather pages